Time,TemperatureF,DewpointF,PressureIn,WindDirection,WindDirectionDegrees,WindSpeedMPH,WindSpeedGustMPH,Humidity,HourlyPrecipIn,Conditions,Clouds,dailyrainin,SoftwareType,DateUTC
2013-03-17 00:00:00,36.6,33.7,29.96,NNE,23,11.0,13.0,89,0.00,,RA,0.00,VWS V14.00,2013-03-17 05:00:00,
2013-03-17 00:05:00,36.6,33.7,29.97,NE,40,9.0,14.0,89,0.00,,RA,0.00,VWS V14.00,2013-03-17 05:05:00,
2013-03-17 00:10:00,36.5,33.6,29.97,NNE,30,10.0,14.0,89,0.00,,RA,0.00,VWS V14.00,2013-03-17 05:10:00,
2013-03-17 00:15:00,36.4,33.5,29.97,NNE,28,7.0,14.0,89,0.01,,RA,0.01,VWS V14.00,2013-03-17 05:15:00,
2013-03-17 00:20:00,36.3,33.4,29.96,NE,45,10.0,14.0,89,0.01,,-RA,0.01,VWS V14.00,2013-03-17 05:20:00,
2013-03-17 00:25:00,36.2,33.3,29.96,NNE,19,6.0,15.0,89,0.01,,-RA,0.01,VWS V14.00,2013-03-17 05:25:00,
2013-03-17 00:30:00,36.1,33.2,29.97,NNE,28,4.0,15.0,89,0.01,,-RA,0.01,VWS V14.00,2013-03-17 05:30:00,
2013-03-17 00:35:00,36.1,33.2,29.97,NNE,17,6.0,15.0,89,0.02,,-RA,0.02,VWS V14.00,2013-03-17 05:35:00,
2013-03-17 00:40:00,36.0,33.4,29.97,NE,38,3.0,15.0,90,0.02,,-RA,0.02,VWS V14.00,2013-03-17 05:40:00,
2013-03-17 00:45:00,36.0,33.4,29.99,NNE,16,2.0,15.0,90,0.03,,-RA,0.03,VWS V14.00,2013-03-17 05:45:00,
2013-03-17 00:50:00,35.9,33.5,29.98,NNE,23,10.0,15.0,91,0.03,,-RA,0.03,VWS V14.00,2013-03-17 05:50:00,
2013-03-17 00:55:00,35.9,33.3,29.97,NNE,30,8.0,11.0,90,0.03,,-RA,0.03,VWS V14.00,2013-03-17 05:55:00,
2013-03-17 01:00:00,35.8,33.2,29.97,NE,36,9.0,11.0,90,0.03,,RA,0.03,VWS V14.00,2013-03-17 06:00:00,
2013-03-17 01:05:00,35.7,33.1,29.96,NE,46,7.0,12.0,90,0.04,,RA,0.04,VWS V14.00,2013-03-17 06:05:00,
2013-03-17 01:10:00,35.6,33.0,29.96,NNW,346,3.0,16.0,90,0.04,,RA,0.04,VWS V14.00,2013-03-17 06:10:00,
2013-03-17 01:15:00,35.5,32.9,29.96,North,5,8.0,16.0,90,0.05,,RA,0.05,VWS V14.00,2013-03-17 06:15:00,
2013-03-17 01:20:00,35.5,32.9,29.96,NNE,20,7.0,16.0,90,0.05,,RA,0.05,VWS V14.00,2013-03-17 06:20:00,
2013-03-17 01:25:00,35.4,33.0,29.96,NNE,28,13.0,14.0,91,0.04,,RA,0.05,VWS V14.00,2013-03-17 06:25:00,
2013-03-17 01:30:00,35.2,32.6,29.96,NE,36,10.0,18.0,90,0.05,,RA,0.06,VWS V14.00,2013-03-17 06:30:00,
2013-03-17 01:35:00,35.2,32.8,29.96,NE,55,6.0,18.0,91,0.05,,RA,0.06,VWS V14.00,2013-03-17 06:35:00,
2013-03-17 01:40:00,35.1,32.7,29.97,North,10,10.0,18.0,91,0.06,,RA,0.07,VWS V14.00,2013-03-17 06:40:00,
2013-03-17 01:45:00,35.1,32.7,29.97,North,355,3.0,18.0,91,0.06,,RA,0.07,VWS V14.00,2013-03-17 06:45:00,
2013-03-17 01:50:00,35.1,32.7,29.97,NE,34,7.0,18.0,91,0.06,,RA,0.07,VWS V14.00,2013-03-17 06:50:00,
2013-03-17 01:55:00,35.1,32.7,29.98,North,5,6.0,9.0,91,0.05,,RA,0.08,VWS V14.00,2013-03-17 06:55:00,
2013-03-17 02:00:00,35.0,32.6,29.99,NNE,24,2.0,9.0,91,0.05,,RA,0.08,VWS V14.00,2013-03-17 07:00:00,
2013-03-17 02:05:00,34.9,32.5,29.99,NNE,22,6.0,9.0,91,0.06,,RA,0.09,VWS V14.00,2013-03-17 07:05:00,
2013-03-17 02:10:00,34.9,32.5,29.99,North,10,7.0,11.0,91,0.06,,RA,0.09,VWS V14.00,2013-03-17 07:10:00,
2013-03-17 02:15:00,34.8,32.5,30.00,North,360,4.0,11.0,91,0.06,,RA,0.09,VWS V14.00,2013-03-17 07:15:00,
2013-03-17 02:20:00,34.8,32.5,30.00,North,9,2.0,11.0,91,0.07,, +RA,0.10,VWS V14.00,2013-03-17 07:20:00,
2013-03-17 02:25:00,34.8,32.5,30.00,NNE,28,3.0,6.0,91,0.06,, +RA,0.11,VWS V14.00,2013-03-17 07:25:00,
2013-03-17 02:30:00,34.7,32.6,30.00,NE,39,5.0,7.0,92,0.06,, +RA,0.11,VWS V14.00,2013-03-17 07:30:00,
2013-03-17 02:35:00,34.7,32.6,30.00,NE,34,4.0,8.0,92,0.06,, +RA,0.11,VWS V14.00,2013-03-17 07:35:00,
2013-03-17 02:40:00,34.7,32.6,30.00,NNE,32,4.0,10.0,92,0.07,,-RA,0.12,VWS V14.00,2013-03-17 07:40:00,
2013-03-17 02:45:00,34.7,32.6,30.01,North,355,4.0,10.0,92,0.07,,-RA,0.12,VWS V14.00,2013-03-17 07:45:00,
2013-03-17 02:50:00,34.7,32.6,30.01,NNE,18,5.0,10.0,92,0.08,,-RA,0.13,VWS V14.00,2013-03-17 07:50:00,
2013-03-17 02:55:00,34.6,32.5,30.00,NNE,32,5.0,7.0,92,0.06,,-RA,0.13,VWS V14.00,2013-03-17 07:55:00,
2013-03-17 03:00:00,34.6,32.5,30.01,NNE,30,4.0,7.0,92,0.07,, +RA,0.14,VWS V14.00,2013-03-17 08:00:00,
2013-03-17 03:05:00,34.6,32.5,30.00,NNE,19,7.0,10.0,92,0.08,, +RA,0.15,VWS V14.00,2013-03-17 08:05:00,
2013-03-17 03:10:00,34.5,32.7,30.01,NNE,32,8.0,10.0,93,0.08,, +RA,0.15,VWS V14.00,2013-03-17 08:10:00,
2013-03-17 03:15:00,34.5,32.7,30.00,NNE,17,4.0,10.0,93,0.09,, +RA,0.16,VWS V14.00,2013-03-17 08:15:00,
2013-03-17 03:20:00,34.5,32.7,30.00,NNE,25,5.0,10.0,93,0.09,,-RA,0.16,VWS V14.00,2013-03-17 08:20:00,
2013-03-17 03:25:00,34.4,32.6,30.01,NE,42,7.0,13.0,93,0.07,,-RA,0.17,VWS V14.00,2013-03-17 08:25:00,
2013-03-17 03:30:00,34.5,32.7,30.00,NNE,26,8.0,13.0,93,0.07,,-RA,0.17,VWS V14.00,2013-03-17 08:30:00,
2013-03-17 03:35:00,34.5,32.7,30.01,NNE,24,6.0,13.0,93,0.08,,-RA,0.18,VWS V14.00,2013-03-17 08:35:00,
2013-03-17 03:40:00,34.5,32.7,30.01,NE,44,9.0,13.0,93,0.09,,-RA,0.19,VWS V14.00,2013-03-17 08:40:00,
2013-03-17 03:45:00,34.5,32.7,30.01,NNE,19,1.0,13.0,93,0.09,,-RA,0.19,VWS V14.00,2013-03-17 08:45:00,
2013-03-17 03:50:00,34.4,32.6,30.01,NE,40,5.0,13.0,93,0.09,,-RA,0.19,VWS V14.00,2013-03-17 08:50:00,
2013-03-17 03:55:00,34.4,32.6,30.00,NNE,13,8.0,11.0,93,0.07,,-RA,0.20,VWS V14.00,2013-03-17 08:55:00,
2013-03-17 04:00:00,34.4,32.6,30.00,NNE,29,5.0,11.0,93,0.08,,-RA,0.21,VWS V14.00,2013-03-17 09:00:00,
2013-03-17 04:05:00,34.4,32.6,30.01,NE,38,3.0,12.0,93,0.08,,-RA,0.21,VWS V14.00,2013-03-17 09:05:00,
2013-03-17 04:10:00,34.4,32.6,30.01,NNE,26,9.0,12.0,93,0.08,,-RA,0.21,VWS V14.00,2013-03-17 09:10:00,
2013-03-17 04:15:00,34.2,32.4,30.01,NE,39,5.0,12.0,93,0.09,,-RA,0.22,VWS V14.00,2013-03-17 09:15:00,
2013-03-17 04:20:00,34.1,32.3,30.03,NE,34,4.0,12.0,93,0.10,,-RA,0.23,VWS V14.00,2013-03-17 09:20:00,
2013-03-17 04:25:00,34.1,32.3,30.03,NE,53,3.0,6.0,93,0.06,,-RA,0.23,VWS V14.00,2013-03-17 09:25:00,
2013-03-17 04:30:00,34.0,32.2,30.04,NE,43,11.0,11.0,93,0.07,,-RA,0.24,VWS V14.00,2013-03-17 09:30:00,
2013-03-17 04:35:00,33.9,31.8,30.05,North,360,5.0,12.0,92,0.07,,-RA,0.24,VWS V14.00,2013-03-17 09:35:00,
2013-03-17 04:40:00,33.7,31.6,30.04,NE,40,10.0,13.0,92,0.08,,OVC017,0.25,VWS V14.00,2013-03-17 09:40:00,
2013-03-17 04:45:00,33.6,31.3,30.04,NE,44,8.0,14.0,91,0.08,,OVC017,0.25,VWS V14.00,2013-03-17 09:45:00,
2013-03-17 04:49:00,33.6,31.3,30.05,NE,40,5.0,14.0,91,0.09,,OVC017,0.26,VWS V14.00,2013-03-17 09:49:00,
2013-03-17 04:54:00,33.5,31.2,30.04,NE,40,6.0,12.0,91,0.07,,OVC017,0.26,VWS V14.00,2013-03-17 09:54:00,
2013-03-17 04:59:00,33.5,31.4,30.04,ENE,60,5.0,12.0,92,0.08,,-RA,0.27,VWS V14.00,2013-03-17 09:59:00,
2013-03-17 05:00:00,33.6,31.3,30.05,NE,39,10.0,14.0,91,0.09,,,0.26,VWS V14.00,2013-03-17 10:00:00,
2013-03-17 05:04:00,33.3,31.0,30.04,NE,41,5.0,12.0,91,0.08,,-RA,0.27,VWS V14.00,2013-03-17 10:04:00,
2013-03-17 05:09:00,33.2,30.9,30.05,ENE,61,7.0,12.0,91,0.09,,-RA,0.28,VWS V14.00,2013-03-17 10:09:00,
2013-03-17 05:14:00,33.2,30.9,30.05,ENE,59,3.0,12.0,91,0.09,,-RA,0.28,VWS V14.00,2013-03-17 10:14:00,
2013-03-17 05:19:00,33.1,30.8,30.05,NNE,28,4.0,12.0,91,0.10,,RA,0.29,VWS V14.00,2013-03-17 10:19:00,
2013-03-17 05:24:00,33.0,30.7,30.04,NE,51,5.0,11.0,91,0.06,,RA,0.29,VWS V14.00,2013-03-17 10:24:00,
2013-03-17 05:29:00,32.8,30.5,30.04,ENE,74,2.0,11.0,91,0.07,,RA,0.30,VWS V14.00,2013-03-17 10:29:00,
2013-03-17 05:30:00,33.0,30.7,30.04,ENE,65,11.0,12.0,91,0.10,,,0.29,VWS V14.00,2013-03-17 10:30:00,
2013-03-17 05:34:00,32.7,30.4,30.04,NE,49,7.0,11.0,91,0.08,,RA,0.31,VWS V14.00,2013-03-17 10:34:00,
2013-03-17 05:39:00,32.6,30.3,30.04,NE,44,5.0,12.0,91,0.08,,-RA,0.31,VWS V14.00,2013-03-17 10:39:00,
2013-03-17 05:44:00,32.6,30.3,30.03,NNE,26,6.0,12.0,91,0.08,,-RA,0.31,VWS V14.00,2013-03-17 10:44:00,
2013-03-17 05:49:00,32.5,30.2,30.05,NNE,32,9.0,12.0,91,0.09,,-RA,0.32,VWS V14.00,2013-03-17 10:49:00,
2013-03-17 05:54:00,32.5,30.2,30.05,NNE,31,9.0,14.0,91,0.07,,-RA,0.33,VWS V14.00,2013-03-17 10:54:00,
2013-03-17 05:59:00,32.5,30.2,30.05,NE,48,8.0,14.0,91,0.07,,-RA,0.33,VWS V14.00,2013-03-17 10:59:00,
2013-03-17 06:00:00,32.5,30.4,30.05,ENE,59,8.0,15.0,92,0.09,,,0.32,VWS V14.00,2013-03-17 11:00:00,
2013-03-17 06:04:00,32.5,29.9,30.04,NE,47,10.0,14.0,90,0.07,,-RA,0.33,VWS V14.00,2013-03-17 11:04:00,
2013-03-17 06:09:00,32.5,29.9,30.05,NE,44,4.0,14.0,90,0.08,,-RA,0.34,VWS V14.00,2013-03-17 11:09:00,
2013-03-17 06:14:00,32.5,29.9,30.04,NE,44,7.0,14.0,90,0.09,,-RA,0.35,VWS V14.00,2013-03-17 11:14:00,
2013-03-17 06:19:00,32.4,29.8,30.04,NE,37,4.0,14.0,90,0.09,,OVC055,0.35,VWS V14.00,2013-03-17 11:19:00,
2013-03-17 06:24:00,32.4,29.8,30.04,NE,41,4.0,10.0,90,0.06,,OVC055,0.35,VWS V14.00,2013-03-17 11:24:00,
2013-03-17 06:29:00,32.4,29.8,30.04,ENE,59,5.0,14.0,90,0.07,,OVC055,0.36,VWS V14.00,2013-03-17 11:29:00,
2013-03-17 06:30:00,32.4,29.8,30.04,NE,48,10.0,14.0,90,0.09,,,0.35,VWS V14.00,2013-03-17 11:30:00,
2013-03-17 06:34:00,32.4,29.8,30.04,ENE,58,6.0,14.0,90,0.08,,OVC055,0.37,VWS V14.00,2013-03-17 11:34:00,
2013-03-17 06:39:00,32.4,29.5,30.04,NE,44,8.0,14.0,89,0.08,,OVC090,0.37,VWS V14.00,2013-03-17 11:39:00,
2013-03-17 06:44:00,32.4,29.5,30.03,ENE,63,10.0,14.0,89,0.08,,OVC090,0.37,VWS V14.00,2013-03-17 11:44:00,
2013-03-17 06:49:00,32.4,29.5,30.03,NE,47,11.0,14.0,89,0.09,,OVC090,0.38,VWS V14.00,2013-03-17 11:49:00,
2013-03-17 06:54:00,32.4,29.2,30.03,NE,35,8.0,11.0,88,0.07,,OVC090,0.39,VWS V14.00,2013-03-17 11:54:00,
2013-03-17 06:59:00,32.4,29.5,30.04,NE,44,6.0,11.0,89,0.07,,OVC090,0.39,VWS V14.00,2013-03-17 11:59:00,
2013-03-17 07:00:00,32.4,29.5,30.03,NNE,32,9.0,14.0,89,0.09,,,0.38,VWS V14.00,2013-03-17 12:00:00,
2013-03-17 07:04:00,32.5,29.6,30.04,NE,37,5.0,11.0,89,0.07,,OVC090,0.39,VWS V14.00,2013-03-17 12:04:00,
2013-03-17 07:09:00,32.5,29.6,30.05,NNE,20,4.0,11.0,89,0.08,,OVC090,0.40,VWS V14.00,2013-03-17 12:09:00,
2013-03-17 07:14:00,32.5,29.6,30.06,NE,46,7.0,12.0,89,0.08,,OVC090,0.40,VWS V14.00,2013-03-17 12:14:00,
2013-03-17 07:19:00,32.5,29.4,30.06,NE,34,5.0,14.0,88,0.09,,OVC070,0.41,VWS V14.00,2013-03-17 12:19:00,
2013-03-17 07:24:00,32.5,29.4,30.07,NE,36,10.0,12.0,88,0.06,,OVC070,0.41,VWS V14.00,2013-03-17 12:24:00,
2013-03-17 07:29:00,32.5,29.1,30.07,NE,53,5.0,13.0,87,0.06,,OVC070,0.41,VWS V14.00,2013-03-17 12:29:00,
2013-03-17 07:30:00,32.5,29.4,30.06,NE,38,7.0,14.0,88,0.09,,,0.41,VWS V14.00,2013-03-17 12:30:00,
2013-03-17 07:34:00,32.5,29.4,30.07,NE,39,7.0,13.0,88,0.06,,OVC070,0.41,VWS V14.00,2013-03-17 12:34:00,
2013-03-17 07:39:00,32.5,29.4,30.07,NE,44,6.0,13.0,88,0.07,,OVC060,0.42,VWS V14.00,2013-03-17 12:39:00,
2013-03-17 07:44:00,32.5,29.4,30.08,NNE,19,7.0,13.0,88,0.07,,OVC060,0.42,VWS V14.00,2013-03-17 12:44:00,
2013-03-17 07:49:00,32.5,29.4,30.08,NE,43,10.0,13.0,88,0.08,,OVC060,0.43,VWS V14.00,2013-03-17 12:49:00,
2013-03-17 07:54:00,32.5,29.4,30.08,NNE,24,6.0,13.0,88,0.05,,OVC060,0.43,VWS V14.00,2013-03-17 12:54:00,
2013-03-17 07:59:00,32.5,29.1,30.08,North,10,6.0,17.0,87,0.05,,OVC060,0.43,VWS V14.00,2013-03-17 12:59:00,
2013-03-17 08:00:00,32.5,29.4,30.07,NNE,15,7.0,13.0,88,0.08,,,0.43,VWS V14.00,2013-03-17 13:00:00,
2013-03-17 08:04:00,32.5,29.1,30.08,North,9,5.0,17.0,87,0.05,,OVC022,0.43,VWS V14.00,2013-03-17 13:04:00,
2013-03-17 08:09:00,32.5,29.1,30.07,NE,39,9.0,17.0,87,0.05,,OVC022,0.43,VWS V14.00,2013-03-17 13:09:00,
2013-03-17 08:14:00,32.5,28.8,30.07,NNE,24,8.0,17.0,86,0.06,,OVC022,0.44,VWS V14.00,2013-03-17 13:14:00,
2013-03-17 08:19:00,32.6,28.9,30.07,NE,45,5.0,17.0,86,0.06,,OVC022,0.44,VWS V14.00,2013-03-17 13:19:00,
2013-03-17 08:24:00,32.6,29.2,30.07,ENE,57,11.0,11.0,87,0.03,,OVC022,0.44,VWS V14.00,2013-03-17 13:24:00,
2013-03-17 08:29:00,32.6,29.2,30.07,NE,43,7.0,11.0,87,0.04,,OVC022,0.45,VWS V14.00,2013-03-17 13:29:00,
2013-03-17 08:30:00,32.6,29.2,30.07,NE,55,7.0,17.0,87,0.06,,,0.44,VWS V14.00,2013-03-17 13:30:00,
2013-03-17 08:34:00,32.6,29.2,30.07,ENE,59,8.0,11.0,87,0.04,,OVC022,0.45,VWS V14.00,2013-03-17 13:34:00,
2013-03-17 08:39:00,32.5,28.8,30.06,NE,46,10.0,14.0,86,0.04,,BKN100,0.45,VWS V14.00,2013-03-17 13:39:00,
2013-03-17 08:44:00,32.5,29.1,30.06,NE,41,13.0,14.0,87,0.04,,BKN100,0.45,VWS V14.00,2013-03-17 13:44:00,
2013-03-17 08:49:00,32.5,29.1,30.06,NE,42,6.0,15.0,87,0.04,,BKN100,0.45,VWS V14.00,2013-03-17 13:49:00,
2013-03-17 08:54:00,32.5,29.1,30.06,NNE,30,9.0,12.0,87,0.02,,BKN100,0.45,VWS V14.00,2013-03-17 13:54:00,
2013-03-17 08:59:00,32.5,29.1,30.06,ENE,58,12.0,14.0,87,0.02,,-RA,0.45,VWS V14.00,2013-03-17 13:59:00,
2013-03-17 09:00:00,32.5,29.1,30.06,NE,46,10.0,15.0,87,0.04,,,0.45,VWS V14.00,2013-03-17 14:00:00,
2013-03-17 09:04:00,32.4,29.0,30.06,NE,42,4.0,15.0,87,0.02,,-RA,0.45,VWS V14.00,2013-03-17 14:04:00,
2013-03-17 09:09:00,32.5,29.4,30.06,ENE,59,3.0,15.0,88,0.02,,-RA,0.45,VWS V14.00,2013-03-17 14:09:00,
2013-03-17 09:14:00,32.4,29.2,30.07,NE,56,3.0,15.0,88,0.03,,-RA,0.46,VWS V14.00,2013-03-17 14:14:00,
2013-03-17 09:19:00,32.4,29.2,30.07,NE,34,4.0,15.0,88,0.03,,-RA,0.46,VWS V14.00,2013-03-17 14:19:00,
2013-03-17 09:24:00,32.4,29.2,30.07,NNE,23,4.0,7.0,88,0.02,,-RA,0.46,VWS V14.00,2013-03-17 14:24:00,
2013-03-17 09:29:00,32.5,29.4,30.07,NE,40,6.0,6.0,88,0.02,,-RA,0.46,VWS V14.00,2013-03-17 14:29:00,
2013-03-17 09:30:00,32.4,29.2,30.07,NNE,32,4.0,15.0,88,0.03,,,0.46,VWS V14.00,2013-03-17 14:30:00,
2013-03-17 09:34:00,32.6,29.7,30.07,NNE,30,9.0,11.0,89,0.02,,-RA,0.46,VWS V14.00,2013-03-17 14:34:00,
2013-03-17 09:39:00,32.7,29.8,30.06,NE,47,8.0,11.0,89,0.02,,-RA,0.46,VWS V14.00,2013-03-17 14:39:00,
2013-03-17 09:44:00,32.6,29.7,30.06,NE,44,2.0,11.0,89,0.02,,-RA,0.46,VWS V14.00,2013-03-17 14:44:00,
2013-03-17 09:49:00,32.6,29.7,30.06,NE,48,6.0,11.0,89,0.02,,-RA,0.46,VWS V14.00,2013-03-17 14:49:00,
2013-03-17 09:54:00,32.6,29.7,30.06,NE,50,6.0,9.0,89,0.01,,-RA,0.46,VWS V14.00,2013-03-17 14:54:00,
2013-03-17 09:59:00,32.6,30.0,30.06,NE,46,12.0,12.0,90,0.02,,-RA,0.47,VWS V14.00,2013-03-17 14:59:00,
2013-03-17 10:00:00,32.6,29.7,30.06,NE,51,10.0,11.0,89,0.02,,,0.46,VWS V14.00,2013-03-17 15:00:00,
2013-03-17 10:04:00,32.5,29.9,30.06,NE,42,6.0,12.0,90,0.02,,-RA,0.47,VWS V14.00,2013-03-17 15:04:00,
2013-03-17 10:09:00,32.5,29.9,30.06,NNE,30,7.0,12.0,90,0.02,,-RA,0.47,VWS V14.00,2013-03-17 15:09:00,
2013-03-17 10:14:00,32.5,29.9,30.07,ENE,65,6.0,12.0,90,0.02,,-RA,0.47,VWS V14.00,2013-03-17 15:14:00,
2013-03-17 10:19:00,32.4,29.8,30.07,NE,49,8.0,12.0,90,0.02,,-RA,0.47,VWS V14.00,2013-03-17 15:19:00,
2013-03-17 10:24:00,32.4,29.8,30.07,NNE,30,10.0,12.0,90,0.01,,-RA,0.47,VWS V14.00,2013-03-17 15:24:00,
2013-03-17 10:29:00,32.4,30.1,30.07,NE,51,11.0,12.0,91,0.01,,-RA,0.47,VWS V14.00,2013-03-17 15:29:00,
2013-03-17 10:30:00,32.4,29.8,30.07,NE,38,9.0,12.0,90,0.02,,,0.47,VWS V14.00,2013-03-17 15:30:00,
2013-03-17 10:34:00,32.4,29.8,30.07,ENE,65,3.0,12.0,90,0.01,,-RA,0.47,VWS V14.00,2013-03-17 15:34:00,
2013-03-17 10:39:00,32.4,30.1,30.07,NE,49,4.0,12.0,91,0.01,,-RA,0.47,VWS V14.00,2013-03-17 15:39:00,
2013-03-17 10:44:00,32.5,30.2,30.07,ENE,65,4.0,12.0,91,0.02,,-RA,0.48,VWS V14.00,2013-03-17 15:44:00,
2013-03-17 10:49:00,32.6,30.3,30.07,NE,44,7.0,12.0,91,0.02,,-RA,0.48,VWS V14.00,2013-03-17 15:49:00,
2013-03-17 10:54:00,32.6,30.0,30.07,NE,40,8.0,11.0,90,0.02,,-RA,0.48,VWS V14.00,2013-03-17 15:54:00,
2013-03-17 10:59:00,32.7,30.4,30.08,NE,38,4.0,11.0,91,0.02,,-RA,0.48,VWS V14.00,2013-03-17 15:59:00,
2013-03-17 11:00:00,32.6,30.3,30.07,East,94,8.0,15.0,91,0.02,,,0.48,VWS V14.00,2013-03-17 16:00:00,
2013-03-17 11:04:00,32.7,30.1,30.07,East,92,1.0,11.0,90,0.02,,-RA,0.48,VWS V14.00,2013-03-17 16:04:00,
2013-03-17 11:09:00,32.8,30.2,30.08,ENE,57,6.0,11.0,90,0.03,,-RA,0.49,VWS V14.00,2013-03-17 16:09:00,
2013-03-17 11:14:00,32.8,30.2,30.08,NE,54,7.0,11.0,90,0.03,,-RA,0.49,VWS V14.00,2013-03-17 16:14:00,
2013-03-17 11:19:00,32.9,30.3,30.08,NE,42,7.0,11.0,90,0.03,,-RA,0.49,VWS V14.00,2013-03-17 16:19:00,
2013-03-17 11:24:00,33.0,30.4,30.08,NE,37,7.0,13.0,90,0.02,,-RA,0.49,VWS V14.00,2013-03-17 16:24:00,
2013-03-17 11:29:00,33.0,30.4,30.07,NE,52,3.0,13.0,90,0.02,,-RA,0.49,VWS V14.00,2013-03-17 16:29:00,
2013-03-17 11:30:00,33.0,30.7,30.08,NE,41,11.0,11.0,91,0.03,,,0.49,VWS V14.00,2013-03-17 16:30:00,
2013-03-17 11:34:00,33.0,30.4,30.08,NE,45,6.0,14.0,90,0.02,,-RA,0.49,VWS V14.00,2013-03-17 16:34:00,
2013-03-17 11:39:00,33.0,30.4,30.07,ENE,59,7.0,14.0,90,0.02,,-RA,0.49,VWS V14.00,2013-03-17 16:39:00,
2013-03-17 11:44:00,33.2,30.9,30.07,ENE,76,4.0,14.0,91,0.02,,-RA,0.49,VWS V14.00,2013-03-17 16:44:00,
2013-03-17 11:49:00,33.4,31.1,30.07,ENE,58,4.0,14.0,91,0.02,,-RA,0.49,VWS V14.00,2013-03-17 16:49:00,
2013-03-17 11:54:00,33.6,31.3,30.06,ENE,67,7.0,10.0,91,0.02,,-RA,0.50,VWS V14.00,2013-03-17 16:54:00,
2013-03-17 11:59:00,33.6,31.0,30.06,ENE,76,4.0,10.0,90,0.02,,-RA,0.50,VWS V14.00,2013-03-17 16:59:00,
2013-03-17 12:00:00,33.5,31.2,30.07,NNE,30,7.0,14.0,91,0.02,,,0.49,VWS V14.00,2013-03-17 17:00:00,
2013-03-17 12:04:00,33.8,31.5,30.05,ENE,69,6.0,11.0,91,0.02,,-RA,0.50,VWS V14.00,2013-03-17 17:04:00,
2013-03-17 12:09:00,34.1,31.8,30.05,East,94,6.0,11.0,91,0.02,,-RA,0.50,VWS V14.00,2013-03-17 17:09:00,
2013-03-17 12:14:00,34.2,31.9,30.04,ENE,59,5.0,12.0,91,0.02,,-RA,0.50,VWS V14.00,2013-03-17 17:14:00,
2013-03-17 12:19:00,34.3,31.7,30.04,NE,49,11.0,12.0,90,0.03,,-RA,0.51,VWS V14.00,2013-03-17 17:19:00,
2013-03-17 12:24:00,34.6,32.2,30.04,East,86,6.0,12.0,91,0.02,,-RA,0.51,VWS V14.00,2013-03-17 17:24:00,
2013-03-17 12:29:00,34.6,32.0,30.03,ENE,61,3.0,12.0,90,0.02,,-RA,0.51,VWS V14.00,2013-03-17 17:29:00,
2013-03-17 12:30:00,34.4,32.0,30.04,ENE,65,4.0,12.0,91,0.03,,,0.51,VWS V14.00,2013-03-17 17:30:00,
2013-03-17 12:34:00,34.9,32.5,30.03,NNE,24,9.0,15.0,91,0.02,,-RA,0.51,VWS V14.00,2013-03-17 17:34:00,
2013-03-17 12:39:00,34.9,32.3,30.03,ENE,57,8.0,15.0,90,0.02,,OVC014,0.51,VWS V14.00,2013-03-17 17:39:00,
2013-03-17 12:44:00,35.1,32.5,30.03,NNE,24,11.0,15.0,90,0.02,,OVC014,0.51,VWS V14.00,2013-03-17 17:44:00,
2013-03-17 12:49:00,35.2,32.6,30.03,NE,49,8.0,15.0,90,0.02,,OVC014,0.51,VWS V14.00,2013-03-17 17:49:00,
2013-03-17 12:54:00,35.2,32.3,30.03,ENE,63,5.0,14.0,89,0.02,,OVC014,0.51,VWS V14.00,2013-03-17 17:54:00,
2013-03-17 12:59:00,35.5,32.9,30.02,East,80,4.0,14.0,90,0.02,,OVC012,0.51,VWS V14.00,2013-03-17 17:59:00,
2013-03-17 13:00:00,35.2,32.3,30.03,ENE,63,8.0,15.0,89,0.02,,,0.51,VWS V14.00,2013-03-17 18:00:00,
2013-03-17 13:04:00,35.7,33.1,30.02,ENE,78,5.0,14.0,90,0.03,,OVC012,0.52,VWS V14.00,2013-03-17 18:04:00,
2013-03-17 13:09:00,35.7,32.8,30.02,ENE,65,4.0,15.0,89,0.03,,OVC012,0.52,VWS V14.00,2013-03-17 18:09:00,
2013-03-17 13:14:00,35.7,32.8,30.01,ENE,68,6.0,15.0,89,0.03,,OVC012,0.52,VWS V14.00,2013-03-17 18:14:00,
2013-03-17 13:19:00,35.9,33.0,30.01,NE,40,6.0,15.0,89,0.03,,OVC012,0.52,VWS V14.00,2013-03-17 18:19:00,
2013-03-17 13:24:00,36.2,33.3,30.00,NE,55,10.0,14.0,89,0.01,,OVC012,0.52,VWS V14.00,2013-03-17 18:24:00,
2013-03-17 13:29:00,36.2,33.0,30.00,ENE,76,1.0,14.0,88,0.01,,OVC012,0.52,VWS V14.00,2013-03-17 18:29:00,
2013-03-17 13:30:00,36.0,33.1,30.00,NE,49,6.0,15.0,89,0.03,,,0.52,VWS V14.00,2013-03-17 18:30:00,
2013-03-17 13:34:00,36.3,33.1,30.01,ENE,63,13.0,18.0,88,0.01,,OVC012,0.52,VWS V14.00,2013-03-17 18:34:00,
2013-03-17 13:39:00,36.1,32.9,30.00,East,80,3.0,18.0,88,0.01,,OVC012,0.52,VWS V14.00,2013-03-17 18:39:00,
2013-03-17 13:44:00,36.2,33.3,30.00,ENE,73,7.0,18.0,89,0.01,,OVC012,0.52,VWS V14.00,2013-03-17 18:44:00,
2013-03-17 13:49:00,36.2,33.0,30.00,ENE,65,5.0,19.0,88,0.01,,OVC012,0.52,VWS V14.00,2013-03-17 18:49:00,
2013-03-17 13:54:00,36.4,33.2,29.99,ENE,57,4.0,7.0,88,0.01,,OVC012,0.52,VWS V14.00,2013-03-17 18:54:00,
2013-03-17 13:59:00,36.5,33.6,29.99,NE,37,7.0,16.0,89,0.01,,OVC012,0.52,VWS V14.00,2013-03-17 18:59:00,
2013-03-17 14:04:00,36.3,33.1,29.99,East,93,5.0,16.0,88,0.01,,OVC012,0.52,VWS V14.00,2013-03-17 19:04:00,
2013-03-17 14:09:00,36.3,33.1,29.98,ENE,63,4.0,16.0,88,0.01,,OVC012,0.52,VWS V14.00,2013-03-17 19:09:00,
2013-03-17 14:14:00,36.2,33.3,29.98,NE,55,7.0,16.0,89,0.01,,OVC012,0.52,VWS V14.00,2013-03-17 19:14:00,
2013-03-17 14:19:00,36.3,33.4,29.97,NE,34,18.0,18.0,89,0.01,,OVC012,0.52,VWS V14.00,2013-03-17 19:19:00,
2013-03-17 14:24:00,36.3,33.4,29.97,NE,35,2.0,13.0,89,0.00,,OVC012,0.52,VWS V14.00,2013-03-17 19:24:00,
2013-03-17 14:29:00,36.3,33.4,29.96,ENE,63,7.0,13.0,89,0.00,,OVC012,0.52,VWS V14.00,2013-03-17 19:29:00,
2013-03-17 14:30:00,36.3,33.4,29.97,ENE,67,6.0,18.0,89,0.01,,,0.52,VWS V14.00,2013-03-17 19:30:00,
2013-03-17 14:34:00,36.4,33.5,29.95,ENE,66,11.0,14.0,89,0.00,,OVC012,0.52,VWS V14.00,2013-03-17 19:34:00,
2013-03-17 14:39:00,36.4,33.5,29.95,NE,47,8.0,14.0,89,0.00,,OVC012,0.52,VWS V14.00,2013-03-17 19:39:00,
2013-03-17 14:44:00,36.4,33.2,29.95,ENE,71,3.0,14.0,88,0.00,,OVC012,0.52,VWS V14.00,2013-03-17 19:44:00,
2013-03-17 14:49:00,36.5,33.6,29.95,East,92,1.0,14.0,89,0.00,,OVC012,0.52,VWS V14.00,2013-03-17 19:49:00,
2013-03-17 14:54:00,36.5,33.3,29.96,NE,49,7.0,8.0,88,0.00,,OVC012,0.52,VWS V14.00,2013-03-17 19:54:00,
2013-03-17 14:59:00,36.6,33.7,29.96,NE,34,6.0,11.0,89,0.00,,OVC012,0.52,VWS V14.00,2013-03-17 19:59:00,
2013-03-17 15:00:00,36.5,33.6,29.96,ENE,75,4.0,14.0,89,0.00,,,0.52,VWS V14.00,2013-03-17 20:00:00,
2013-03-17 15:04:00,36.5,33.3,29.96,NE,43,5.0,11.0,88,0.00,,OVC012,0.52,VWS V14.00,2013-03-17 20:04:00,
2013-03-17 15:09:00,36.6,33.7,29.96,ENE,65,3.0,11.0,89,0.00,,OVC012,0.52,VWS V14.00,2013-03-17 20:09:00,
2013-03-17 15:14:00,36.6,33.7,29.96,East,85,8.0,11.0,89,0.00,,OVC012,0.52,VWS V14.00,2013-03-17 20:14:00,
2013-03-17 15:19:00,36.6,33.4,29.95,ENE,68,2.0,11.0,88,0.00,,OVC012,0.52,VWS V14.00,2013-03-17 20:19:00,
2013-03-17 15:24:00,36.6,33.4,29.96,NNE,28,5.0,11.0,88,0.00,,OVC012,0.52,VWS V14.00,2013-03-17 20:24:00,
2013-03-17 15:29:00,36.6,33.4,29.97,NE,38,3.0,13.0,88,0.00,,OVC012,0.52,VWS V14.00,2013-03-17 20:29:00,
2013-03-17 15:30:00,36.7,33.5,29.96,NE,52,5.0,11.0,88,0.00,,,0.52,VWS V14.00,2013-03-17 20:30:00,
2013-03-17 15:34:00,36.6,33.7,29.97,ENE,61,3.0,13.0,89,0.00,,OVC012,0.52,VWS V14.00,2013-03-17 20:34:00,
2013-03-17 15:39:00,36.6,33.7,29.96,NE,34,6.0,13.0,89,0.00,,OVC012,0.52,VWS V14.00,2013-03-17 20:39:00,
2013-03-17 15:44:00,36.6,33.7,29.95,East,80,2.0,13.0,89,0.00,,OVC012,0.52,VWS V14.00,2013-03-17 20:44:00,
2013-03-17 15:49:00,36.5,33.6,29.95,East,82,5.0,13.0,89,0.00,,OVC012,0.52,VWS V14.00,2013-03-17 20:49:00,
2013-03-17 15:54:00,36.4,33.8,29.95,East,81,0.0,8.0,90,0.00,,OVC012,0.52,VWS V14.00,2013-03-17 20:54:00,
2013-03-17 15:59:00,36.4,33.8,29.95,ESE,123,2.0,11.0,90,0.00,,OVC012,0.52,VWS V14.00,2013-03-17 20:59:00,
2013-03-17 16:00:00,36.5,33.6,29.95,ENE,78,3.0,13.0,89,0.00,,,0.52,VWS V14.00,2013-03-17 21:00:00,
2013-03-17 16:04:00,36.4,34.0,29.95,NE,43,4.0,11.0,91,0.01,,-RA,0.53,VWS V14.00,2013-03-17 21:04:00,
2013-03-17 16:09:00,36.3,33.9,29.94,ENE,68,6.0,15.0,91,0.01,,-RA,0.53,VWS V14.00,2013-03-17 21:09:00,
2013-03-17 16:14:00,36.3,33.9,29.94,NNE,31,4.0,15.0,91,0.01,,-RA,0.53,VWS V14.00,2013-03-17 21:14:00,
2013-03-17 16:19:00,36.2,33.8,29.93,East,82,7.0,15.0,91,0.01,,-RA,0.53,VWS V14.00,2013-03-17 21:19:00,
2013-03-17 16:24:00,36.2,34.1,29.93,ENE,71,2.0,10.0,92,0.01,,-RA,0.53,VWS V14.00,2013-03-17 21:24:00,
2013-03-17 16:29:00,36.2,34.1,29.93,ENE,64,5.0,11.0,92,0.01,,-RA,0.53,VWS V14.00,2013-03-17 21:29:00,
2013-03-17 16:30:00,36.2,33.8,29.93,NNE,21,6.0,15.0,91,0.01,,,0.53,VWS V14.00,2013-03-17 21:30:00,
2013-03-17 16:34:00,36.2,34.1,29.93,NE,49,8.0,11.0,92,0.01,,-RA,0.53,VWS V14.00,2013-03-17 21:34:00,
2013-03-17 16:39:00,36.2,34.1,29.93,NE,40,5.0,12.0,92,0.01,,RA,0.53,VWS V14.00,2013-03-17 21:39:00,
2013-03-17 16:45:00,36.2,34.1,29.93,NNE,27,6.0,12.0,92,0.01,,RA,0.53,VWS V14.00,2013-03-17 21:45:00,
2013-03-17 16:50:00,36.2,34.1,29.93,NNE,14,12.0,14.0,92,0.01,,RA,0.53,VWS V14.00,2013-03-17 21:50:00,
2013-03-17 16:55:00,36.2,34.1,29.93,ENE,63,6.0,12.0,92,0.02,,RA,0.54,VWS V14.00,2013-03-17 21:55:00,
2013-03-17 17:00:00,36.2,34.1,29.93,NE,55,6.0,16.0,92,0.02,,-RA,0.54,VWS V14.00,2013-03-17 22:00:00,
2013-03-17 17:05:00,36.2,34.4,29.93,ENE,58,2.0,16.0,93,0.02,,-RA,0.54,VWS V14.00,2013-03-17 22:05:00,
2013-03-17 17:10:00,36.1,34.3,29.94,East,86,6.0,16.0,93,0.02,,-RA,0.54,VWS V14.00,2013-03-17 22:10:00,
2013-03-17 17:14:00,36.1,34.3,29.96,East,101,2.0,16.0,93,0.02,,-RA,0.54,VWS V14.00,2013-03-17 22:14:00,
2013-03-17 17:19:00,36.1,34.3,29.95,East,93,0.0,16.0,93,0.03,,RA,0.55,VWS V14.00,2013-03-17 22:19:00,
2013-03-17 17:24:00,36.1,34.3,29.94,East,84,4.0,6.0,93,0.02,,RA,0.55,VWS V14.00,2013-03-17 22:24:00,
2013-03-17 17:29:00,36.0,34.2,29.92,East,89,3.0,7.0,93,0.02,,RA,0.55,VWS V14.00,2013-03-17 22:29:00,
2013-03-17 17:30:00,36.1,34.3,29.94,ENE,77,3.0,16.0,93,0.03,,,0.55,VWS V14.00,2013-03-17 22:30:00,
2013-03-17 17:34:00,35.9,34.1,29.90,NE,44,4.0,10.0,93,0.02,,RA,0.55,VWS V14.00,2013-03-17 22:34:00,
2013-03-17 17:39:00,35.8,34.0,29.89,SE,132,4.0,11.0,93,0.02,,RA,0.55,VWS V14.00,2013-03-17 22:39:00,
2013-03-17 17:44:00,35.8,34.0,29.89,ENE,64,6.0,13.0,93,0.02,,RA,0.55,VWS V14.00,2013-03-17 22:44:00,
2013-03-17 17:49:00,35.7,34.2,29.88,NE,45,10.0,13.0,94,0.02,,RA,0.55,VWS V14.00,2013-03-17 22:49:00,
2013-03-17 17:54:00,35.7,34.2,29.88,NE,56,6.0,17.0,94,0.03,,RA,0.56,VWS V14.00,2013-03-17 22:54:00,
2013-03-17 17:59:00,35.8,34.2,29.88,ENE,67,4.0,17.0,94,0.03,,-RA,0.56,VWS V14.00,2013-03-17 22:59:00,
2013-03-17 18:00:00,35.7,34.2,29.88,ENE,76,6.0,13.0,94,0.02,,,0.55,VWS V14.00,2013-03-17 23:00:00,
2013-03-17 18:04:00,35.9,34.3,29.89,ENE,72,5.0,17.0,94,0.03,,-RA,0.56,VWS V14.00,2013-03-17 23:04:00,
2013-03-17 18:09:00,35.9,34.3,29.89,NE,55,3.0,17.0,94,0.03,,-RA,0.56,VWS V14.00,2013-03-17 23:09:00,
2013-03-17 18:14:00,35.9,34.3,29.89,East,80,6.0,17.0,94,0.03,,-RA,0.56,VWS V14.00,2013-03-17 23:14:00,
2013-03-17 18:19:00,35.9,34.3,29.89,ENE,71,1.0,17.0,94,0.04,,,0.57,VWS V14.00,2013-03-17 23:19:00,
2013-03-17 18:24:00,36.0,34.4,29.90,ESE,105,5.0,6.0,94,0.02,,,0.57,VWS V14.00,2013-03-17 23:24:00,
2013-03-17 18:29:00,36.0,34.4,29.89,NNE,32,8.0,12.0,94,0.02,,,0.57,VWS V14.00,2013-03-17 23:29:00,
2013-03-17 18:30:00,36.0,34.4,29.89,ENE,76,5.0,17.0,94,0.04,,,0.57,VWS V14.00,2013-03-17 23:30:00,
2013-03-17 18:34:00,36.0,34.4,29.88,ENE,74,3.0,14.0,94,0.02,,,0.57,VWS V14.00,2013-03-17 23:34:00,
2013-03-17 18:39:00,36.0,34.4,29.88,ENE,63,4.0,20.0,94,0.02,,OVC009,0.57,VWS V14.00,2013-03-17 23:39:00,
2013-03-17 18:44:00,35.9,34.1,29.88,NE,52,2.0,20.0,93,0.02,,OVC009,0.57,VWS V14.00,2013-03-17 23:44:00,
2013-03-17 18:49:00,35.9,34.3,29.87,East,81,10.0,20.0,94,0.03,,OVC009,0.58,VWS V14.00,2013-03-17 23:49:00,
2013-03-17 18:54:00,35.9,34.1,29.87,NE,49,3.0,14.0,93,0.03,,OVC009,0.58,VWS V14.00,2013-03-17 23:54:00,
2013-03-17 18:59:00,35.9,34.1,29.88,ENE,76,4.0,14.0,93,0.03,,OVC009,0.58,VWS V14.00,2013-03-17 23:59:00,
2013-03-17 19:00:00,35.9,34.1,29.87,ENE,61,6.0,20.0,93,0.03,,,0.58,VWS V14.00,2013-03-18 00:00:00,
2013-03-17 19:04:00,35.9,34.1,29.85,NE,41,8.0,18.0,93,0.03,,OVC009,0.58,VWS V14.00,2013-03-18 00:04:00,
2013-03-17 19:09:00,36.0,34.2,29.88,NE,44,4.0,18.0,93,0.04,,OVC009,0.59,VWS V14.00,2013-03-18 00:09:00,
2013-03-17 19:14:00,36.0,34.4,29.89,NE,38,7.0,18.0,94,0.04,,OVC009,0.59,VWS V14.00,2013-03-18 00:14:00,
2013-03-17 19:19:00,36.1,34.5,29.94,NNW,329,0.0,18.0,94,0.04,,OVC009,0.59,VWS V14.00,2013-03-18 00:19:00,
2013-03-17 19:24:00,36.1,34.5,29.94,ENE,58,7.0,8.0,94,0.02,,OVC009,0.59,VWS V14.00,2013-03-18 00:24:00,
2013-03-17 19:29:00,36.1,34.5,29.91,NE,37,5.0,12.0,94,0.02,,OVC009,0.59,VWS V14.00,2013-03-18 00:29:00,
2013-03-17 19:30:00,36.1,34.5,29.95,NW,321,4.0,18.0,94,0.04,,,0.59,VWS V14.00,2013-03-18 00:30:00,
2013-03-17 19:34:00,36.1,34.5,29.90,NE,52,5.0,14.0,94,0.02,,OVC009,0.59,VWS V14.00,2013-03-18 00:34:00,
2013-03-17 19:39:00,36.0,34.4,29.87,NE,49,14.0,16.0,94,0.03,,OVC009,0.60,VWS V14.00,2013-03-18 00:39:00,
2013-03-17 19:44:00,35.9,34.3,29.89,NNE,30,8.0,16.0,94,0.03,,OVC009,0.60,VWS V14.00,2013-03-18 00:44:00,
2013-03-17 19:49:00,35.9,34.3,29.88,ENE,59,8.0,16.0,94,0.03,,OVC009,0.60,VWS V14.00,2013-03-18 00:49:00,
2013-03-17 19:54:00,35.9,34.3,29.87,ENE,69,10.0,14.0,94,0.03,,OVC009,0.61,VWS V14.00,2013-03-18 00:54:00,
2013-03-17 19:59:00,35.9,34.3,29.86,NE,46,7.0,16.0,94,0.03,,OVC055,0.61,VWS V14.00,2013-03-18 00:59:00,
2013-03-17 20:00:00,35.9,34.3,29.88,NE,49,11.0,16.0,94,0.03,,,0.60,VWS V14.00,2013-03-18 01:00:00,
2013-03-17 20:04:00,35.9,34.3,29.85,NNE,33,10.0,16.0,94,0.03,,OVC055,0.61,VWS V14.00,2013-03-18 01:04:00,
2013-03-17 20:09:00,36.0,34.4,29.85,ENE,57,11.0,17.0,94,0.03,,OVC055,0.61,VWS V14.00,2013-03-18 01:09:00,
2013-03-17 20:14:00,36.0,34.4,29.87,NNE,33,4.0,18.0,94,0.03,,OVC055,0.61,VWS V14.00,2013-03-18 01:14:00,
2013-03-17 20:19:00,36.0,34.4,29.86,ENE,64,4.0,18.0,94,0.04,,OVC070,0.62,VWS V14.00,2013-03-18 01:19:00,
2013-03-17 20:24:00,36.0,34.4,29.84,East,88,14.0,15.0,94,0.03,,OVC070,0.62,VWS V14.00,2013-03-18 01:24:00,
2013-03-17 20:29:00,35.9,34.3,29.82,NNE,16,11.0,16.0,94,0.03,,OVC070,0.62,VWS V14.00,2013-03-18 01:29:00,
2013-03-17 20:30:00,36.0,34.4,29.85,ENE,71,3.0,18.0,94,0.04,,,0.62,VWS V14.00,2013-03-18 01:30:00,
2013-03-17 20:34:00,35.9,34.3,29.82,East,98,9.0,16.0,94,0.04,,OVC070,0.63,VWS V14.00,2013-03-18 01:34:00,
2013-03-17 20:39:00,35.9,34.3,29.82,East,95,9.0,16.0,94,0.04,,OVC070,0.63,VWS V14.00,2013-03-18 01:39:00,
2013-03-17 20:44:00,36.0,34.4,29.84,NE,49,5.0,16.0,94,0.04,,OVC070,0.63,VWS V14.00,2013-03-18 01:44:00,
2013-03-17 20:49:00,36.0,34.4,29.84,NE,49,7.0,16.0,94,0.04,,OVC070,0.63,VWS V14.00,2013-03-18 01:49:00,
2013-03-17 20:54:00,36.0,34.4,29.87,ENE,65,5.0,11.0,94,0.03,,OVC070,0.63,VWS V14.00,2013-03-18 01:54:00,
2013-03-17 20:59:00,36.1,34.5,29.85,ESE,103,5.0,13.0,94,0.04,,OVC070,0.64,VWS V14.00,2013-03-18 01:59:00,
2013-03-17 21:00:00,36.0,34.4,29.87,NE,53,8.0,8.0,94,0.04,,,0.63,VWS V14.00,2013-03-18 02:00:00,
2013-03-17 21:04:00,36.0,34.4,29.85,NE,47,7.0,13.0,94,0.04,,OVC008,0.64,VWS V14.00,2013-03-18 02:04:00,
2013-03-17 21:09:00,36.0,34.4,29.85,ESE,117,2.0,13.0,94,0.04,,OVC008,0.64,VWS V14.00,2013-03-18 02:09:00,
2013-03-17 21:14:00,36.0,34.4,29.85,NE,45,0.0,13.0,94,0.05,,OVC008,0.65,VWS V14.00,2013-03-18 02:14:00,
2013-03-17 21:19:00,36.0,34.4,29.85,East,92,7.0,13.0,94,0.05,,OVC008,0.65,VWS V14.00,2013-03-18 02:19:00,
2013-03-17 21:24:00,36.0,34.4,29.86,ENE,74,4.0,8.0,94,0.03,,OVC008,0.65,VWS V14.00,2013-03-18 02:24:00,
2013-03-17 21:29:00,36.1,34.5,29.84,ESE,109,0.0,12.0,94,0.03,,OVC008,0.65,VWS V14.00,2013-03-18 02:29:00,
2013-03-17 21:30:00,36.0,34.4,29.86,ESE,114,2.0,13.0,94,0.05,,,0.65,VWS V14.00,2013-03-18 02:30:00,
2013-03-17 21:34:00,36.1,34.5,29.84,NE,45,2.0,12.0,94,0.04,,OVC008,0.66,VWS V14.00,2013-03-18 02:34:00,
2013-03-17 21:39:00,36.0,34.7,29.84,ESE,103,8.0,14.0,95,0.04,,OVC008,0.66,VWS V14.00,2013-03-18 02:39:00,
2013-03-17 21:44:00,36.1,34.8,29.85,ENE,78,4.0,14.0,95,0.05,,OVC008,0.67,VWS V14.00,2013-03-18 02:44:00,
2013-03-17 21:49:00,36.1,34.8,29.86,ENE,71,0.0,14.0,95,0.05,,OVC008,0.67,VWS V14.00,2013-03-18 02:49:00,
2013-03-17 21:54:00,36.1,34.8,29.86,ENE,64,1.0,4.0,95,0.04,,OVC008,0.67,VWS V14.00,2013-03-18 02:54:00,
2013-03-17 21:59:00,36.1,34.8,29.85,ENE,64,2.0,5.0,95,0.04,,OVC008,0.67,VWS V14.00,2013-03-18 02:59:00,
2013-03-17 22:00:00,36.1,34.8,29.85,ENE,57,3.0,14.0,95,0.05,,,0.67,VWS V14.00,2013-03-18 03:00:00,
2013-03-17 22:04:00,36.2,34.9,29.84,East,99,1.0,13.0,95,0.05,,OVC008,0.68,VWS V14.00,2013-03-18 03:04:00,
2013-03-17 22:09:00,36.2,34.9,29.83,ENE,74,5.0,13.0,95,0.05,,OVC008,0.68,VWS V14.00,2013-03-18 03:09:00,
2013-03-17 22:14:00,36.2,34.9,29.84,East,95,7.0,13.0,95,0.06,,OVC008,0.69,VWS V14.00,2013-03-18 03:14:00,
2013-03-17 22:19:00,36.2,34.9,29.84,NE,53,8.0,13.0,95,0.06,,OVC013,0.69,VWS V14.00,2013-03-18 03:19:00,
2013-03-17 22:24:00,36.3,35.0,29.83,East,88,5.0,7.0,95,0.04,,OVC013,0.69,VWS V14.00,2013-03-18 03:24:00,
2013-03-17 22:29:00,36.3,35.0,29.83,ENE,69,8.0,11.0,95,0.04,,OVC013,0.69,VWS V14.00,2013-03-18 03:29:00,
2013-03-17 22:30:00,36.2,34.9,29.84,East,94,6.0,13.0,95,0.06,,,0.69,VWS V14.00,2013-03-18 03:30:00,
2013-03-17 22:34:00,36.3,35.0,29.84,East,98,4.0,11.0,95,0.05,,OVC013,0.70,VWS V14.00,2013-03-18 03:34:00,
2013-03-17 22:39:00,36.3,35.0,29.83,East,84,3.0,11.0,95,0.05,,,0.70,VWS V14.00,2013-03-18 03:39:00,
2013-03-17 22:44:00,36.3,35.0,29.82,East,101,4.0,12.0,95,0.06,,,0.71,VWS V14.00,2013-03-18 03:44:00,
2013-03-17 22:49:00,36.3,35.0,29.83,ENE,76,6.0,12.0,95,0.06,,,0.71,VWS V14.00,2013-03-18 03:49:00,
2013-03-17 22:54:00,36.3,35.0,29.83,ESE,107,4.0,8.0,95,0.04,,,0.71,VWS V14.00,2013-03-18 03:54:00,
2013-03-17 22:59:00,36.4,35.1,29.83,NE,44,1.0,8.0,95,0.04,,,0.71,VWS V14.00,2013-03-18 03:59:00,
2013-03-17 23:00:00,36.4,35.1,29.83,East,99,5.0,8.0,95,0.04,,,0.71,VWS V14.00,2013-03-18 04:00:00,
2013-03-17 23:05:00,36.4,35.1,29.82,ESE,104,12.0,12.0,95,0.05,,,0.72,VWS V14.00,2013-03-18 04:05:00,
2013-03-17 23:10:00,36.4,35.1,29.81,East,96,2.0,12.0,95,0.05,,,0.72,VWS V14.00,2013-03-18 04:10:00,
2013-03-17 23:15:00,36.4,35.1,29.81,SE,136,2.0,12.0,95,0.06,,,0.73,VWS V14.00,2013-03-18 04:15:00,
2013-03-17 23:20:00,36.4,35.1,29.80,SE,144,12.0,15.0,95,0.06,,,0.73,VWS V14.00,2013-03-18 04:20:00,
2013-03-17 23:25:00,36.3,35.0,29.78,SE,140,2.0,14.0,95,0.04,,,0.73,VWS V14.00,2013-03-18 04:25:00,
2013-03-17 23:30:00,36.3,35.0,29.77,ESE,120,5.0,14.0,95,0.04,,,0.73,VWS V14.00,2013-03-18 04:30:00,
2013-03-17 23:35:00,36.3,35.0,29.77,ESE,120,6.0,14.0,95,0.05,,,0.74,VWS V14.00,2013-03-18 04:35:00,
2013-03-17 23:40:00,36.3,35.0,29.76,SSE,153,4.0,14.0,95,0.05,,OVC026,0.74,VWS V14.00,2013-03-18 04:40:00,
2013-03-17 23:45:00,36.3,35.0,29.76,East,92,12.0,15.0,95,0.06,,OVC026,0.75,VWS V14.00,2013-03-18 04:45:00,
2013-03-17 23:50:00,36.3,35.0,29.75,East,98,7.0,15.0,95,0.06,,OVC026,0.75,VWS V14.00,2013-03-18 04:50:00,
2013-03-17 23:55:00,36.3,35.0,29.74,SE,142,5.0,15.0,95,0.04,,OVC026,0.00,VWS V14.00,2013-03-18 04:55:00,